Weather History for Joplin, MO

Change the Weather History Date:

Sunday, December 2, 2012

  Actual Average Record
Temperature  
Mean Temperature 62 °F 41 °F  
Max Temperature 72 °F 51 °F 74 °F (1970)
Min Temperature 51 °F 31 °F 6 °F (2006)
Degree Days  
Heating Degree Days 3 24  
Month to date heating degree days 3 48  
Since 1 July heating degree days 789 805  
Cooling Degree Days 0 0  
Month to date cooling degree days 0 0  
Year to date cooling degree days 2106 1698  
Growing Degree Days 12 (Base 50)    
Moisture  
Dew Point 56 °F    
Average Humidity 86    
Maximum Humidity 100    
Minimum Humidity 55    
Precipitation  
Precipitation 0.00 in 0.11 in 0.97 in (1990)
Month to date precipitation 0.00 0.22  
Year to date precipitation 36.96 43.95  
Snow  
Snow 0.00 in - - ()
Month to date snowfall 0.0  
Snow Depth 0.00 in    
Sea Level Pressure  
Sea Level Pressure 29.97 in    
Wind  
Wind Speed 9 mph (South)    
Max Wind Speed 23 mph    
Max Gust Speed 29 mph    
Visibility 6 miles    
Events Fog    
T = Trace of Precipitation, MM = Missing Value Source: NWS Daily Summary

Daily Weather History Graph

Daily Weather History Graph

Search for Another Location

Airport:

Trip Planner

Search our weather history database for the weather conditions in past years. The results will help you decide how hot, cold, wet, or windy it might be!

Date:

Astronomy

Dec. 02, 2012 Rise Set
Actual Time 7:14 AM CST 5:00 PM CST
Civil Twilight 6:45 AM CST 5:29 PM CST
Nautical Twilight 6:13 AM CST 6:01 PM CST
Astronomical Twilight 5:41 AM CST 6:33 PM CST
Moon 8:46 PM CST 10:06 AM CST
Length of Visible Light 10h 43m
Length of Day
9h 46m
Waning Gibbous, 85% of the Moon is Illuminated
Dec 2
Waning Gibbous
Dec 6
Last Quarter
Dec 13
New
Dec 19
First Quarter
Dec 28
Full

Hourly Weather History & Observations

Time (CST) Temp. Dew Point Humidity Pressure Visibility Wind Dir Wind Speed Gust Speed Precip Events Conditions
12:53 AM 60.1 °F 57.0 °F 90% 29.93 in 10.0 mi Calm Calm - N/A   Clear
1:53 AM 55.9 °F 55.9 °F 100% 29.93 in 6.0 mi South 3.5 mph - N/A   Clear
2:53 AM 55.0 °F 55.0 °F 100% 29.94 in 5.0 mi South 5.8 mph - N/A   Clear
3:03 AM 55.4 °F 55.4 °F 100% 29.96 in 2.0 mi South 5.8 mph - N/A   Clear
3:12 AM 55.4 °F 55.4 °F 100% 29.95 in 6.0 mi South 5.8 mph - N/A   Clear
3:49 AM 53.6 °F 51.8 °F 94% 29.96 in 0.8 mi Calm Calm - N/A   Clear
3:53 AM 53.1 °F 53.1 °F 100% 29.94 in 0.5 mi Calm Calm - N/A Fog Fog
3:58 AM 53.6 °F 53.6 °F 100% 29.96 in 1.0 mi Calm Calm - N/A   Clear
4:03 AM 55.4 °F 55.4 °F 100% 29.96 in 3.0 mi Calm Calm - N/A   Clear
4:20 AM 55.4 °F 55.4 °F 100% 29.96 in 2.0 mi Calm Calm - N/A   Clear
4:29 AM 57.2 °F 57.2 °F 100% 29.96 in 6.0 mi South 5.8 mph - N/A   Clear
4:53 AM 55.9 °F 55.0 °F 97% 29.96 in 6.0 mi Calm Calm - N/A   Clear
4:56 AM 53.6 °F 53.6 °F 100% 29.97 in 0.8 mi NNW 6.9 mph - N/A   Mist
5:03 AM 51.8 °F 50.0 °F 94% 29.98 in 0.2 mi North 6.9 mph - N/A Fog Fog
5:10 AM 51.8 °F 51.8 °F 100% 29.98 in 0.2 mi North 6.9 mph - N/A Fog Fog
5:43 AM 55.4 °F 55.4 °F 100% 29.99 in 1.0 mi Calm Calm - N/A   Overcast
5:53 AM 55.0 °F 55.0 °F 100% 29.97 in 1.8 mi Calm Calm - N/A   Overcast
6:00 AM 55.4 °F 53.6 °F 94% 29.99 in 3.0 mi ESE 3.5 mph - N/A   Overcast
6:53 AM 55.9 °F 55.0 °F 97% 30.00 in 4.0 mi Calm Calm - N/A   Overcast
7:53 AM 54.0 °F 54.0 °F 100% 30.02 in 4.0 mi Calm Calm - N/A   Mostly Cloudy
8:53 AM 61.0 °F 60.1 °F 97% 30.03 in 9.0 mi South 5.8 mph - N/A   Mostly Cloudy
9:28 AM 64.4 °F 60.8 °F 88% 30.05 in 10.0 mi SSW 11.5 mph - N/A   Scattered Clouds
9:53 AM 66.0 °F 60.1 °F 81% 30.03 in 10.0 mi SSW 15.0 mph - N/A   Clear
10:43 AM 66.2 °F 57.2 °F 73% 30.05 in 10.0 mi SW 12.7 mph - N/A   Mostly Cloudy
10:53 AM 66.9 °F 57.9 °F 73% 30.03 in 10.0 mi SSW 11.5 mph - N/A   Mostly Cloudy
11:53 AM 70.0 °F 57.0 °F 63% 30.01 in 10.0 mi SSW 13.8 mph - N/A   Partly Cloudy
12:53 PM 70.0 °F 57.0 °F 63% 29.98 in 10.0 mi SSW 15.0 mph - N/A   Partly Cloudy
1:53 PM 71.1 °F 55.9 °F 59% 29.96 in 10.0 mi South 12.7 mph - N/A   Clear
2:53 PM 72.0 °F 55.0 °F 55% 29.95 in 10.0 mi SSW 11.5 mph - N/A   Clear
3:53 PM 71.1 °F 55.0 °F 57% 29.95 in 10.0 mi SW 9.2 mph - N/A   Clear
4:53 PM 66.9 °F 54.0 °F 63% 29.95 in 10.0 mi SSW 4.6 mph - N/A   Clear
5:53 PM 62.6 °F 53.6 °F 72% 29.96 in 10.0 mi SE 3.5 mph - N/A   Clear
6:53 PM 64.0 °F 55.9 °F 75% 29.95 in 10.0 mi South 10.4 mph - N/A   Partly Cloudy
7:53 PM 64.9 °F 57.9 °F 78% 29.94 in 10.0 mi South 12.7 mph - N/A   Clear
8:53 PM 66.0 °F 59.0 °F 78% 29.93 in 10.0 mi South 15.0 mph - N/A   Clear
9:53 PM 66.0 °F 59.0 °F 78% 29.91 in 10.0 mi South 15.0 mph - N/A   Clear
10:53 PM 66.0 °F 57.9 °F 75% 29.92 in 10.0 mi South 17.3 mph 23.0 mph N/A   Clear
11:53 PM 66.9 °F 57.9 °F 73% 29.91 in 10.0 mi South 23.0 mph 28.8 mph N/A   Clear